TimeAKST,TemperatureF,Dew PointF,Humidity,Sea Level PressureIn,VisibilityMPH,Wind Direction,Wind SpeedMPH,Gust SpeedMPH,PrecipitationIn,Events,Conditions,WindDirDegrees,DateUTC
12:53 AM,34.0,30.0,85,29.27,6.0,ESE,17.3,-,0.00,Snow,Light Snow,110,2014-01-12 09:53:00
1:53 AM,34.0,30.0,85,29.25,9.0,ESE,15.0,-,0.00,Snow,Light Snow,110,2014-01-12 10:53:00
3:17 AM,33.1,30.9,92,29.21,4.0,East,15.0,20.7,0.00,Snow,Light Snow,100,2014-01-12 12:17:00
3:24 AM,33.1,30.9,92,29.20,2.5,East,13.8,-,0.00,Snow,Light Snow,100,2014-01-12 12:24:00
3:53 AM,33.1,30.9,92,29.18,1.0,East,12.7,23.0,0.03,Snow,Light Snow,100,2014-01-12 12:53:00
4:24 AM,33.1,30.9,92,29.15,1.8,ESE,15.0,46.0,0.01,Snow,Light Snow,110,2014-01-12 13:24:00
4:53 AM,33.1,30.9,92,29.12,1.0,ESE,23.0,28.8,0.02,Snow,Light Snow,120,2014-01-12 13:53:00
5:18 AM,32.0,30.9,96,29.10,0.8,East,12.7,28.8,0.02,Snow,Light Snow,100,2014-01-12 14:18:00
5:34 AM,33.1,30.9,92,29.09,0.8,East,12.7,24.2,0.03,Snow,Light Snow,100,2014-01-12 14:34:00
5:41 AM,33.1,30.9,92,29.08,1.5,East,11.5,-,0.03,Snow,Light Snow,100,2014-01-12 14:41:00
5:53 AM,33.1,30.9,92,29.08,1.2,ESE,13.8,-,0.03,Snow,Light Snow,110,2014-01-12 14:53:00
6:07 AM,33.1,30.9,92,29.06,1.5,North,-9999.0,-,0.01,Snow,Light Snow,0,2014-01-12 15:07:00
6:53 AM,33.1,30.9,92,29.04,2.5,SE,12.7,21.9,0.04,Snow,Light Snow,130,2014-01-12 15:53:00
7:08 AM,33.1,30.9,92,29.03,1.2,East,27.6,50.6,0.00,Snow,Light Snow,90,2014-01-12 16:08:00
7:17 AM,33.1,30.9,92,29.03,1.0,East,23.0,-,0.00,Snow,Light Snow,100,2014-01-12 16:17:00
7:53 AM,33.1,30.9,92,29.03,1.0,East,20.7,-,0.02,Snow,Light Snow,100,2014-01-12 16:53:00
8:18 AM,33.1,30.9,92,29.03,2.0,East,20.7,-,0.01,Snow,Light Snow,100,2014-01-12 17:18:00
8:29 AM,33.1,30.9,92,29.03,1.8,East,20.7,-,0.01,Snow,Light Snow,100,2014-01-12 17:29:00
8:53 AM,33.1,32.0,96,29.03,1.0,East,20.7,-,0.04,Snow,Light Snow,100,2014-01-12 17:53:00
9:06 AM,33.1,30.9,92,29.03,2.5,ESE,23.0,-,0.00,Snow,Light Snow,110,2014-01-12 18:06:00
9:26 AM,33.1,32.0,96,29.04,1.0,ESE,23.0,-,0.01,Snow,Light Snow,110,2014-01-12 18:26:00
9:44 AM,33.1,32.0,96,29.03,1.0,ESE,23.0,-,0.03,Snow,Light Snow,110,2014-01-12 18:44:00
9:53 AM,33.1,32.0,96,29.04,1.0,East,17.3,-,0.04,Snow,Light Snow,100,2014-01-12 18:53:00
10:08 AM,34.0,32.0,92,29.04,2.0,ESE,16.1,25.3,0.01,Snow,Light Snow,110,2014-01-12 19:08:00
10:17 AM,34.0,32.0,92,29.04,3.0,ESE,15.0,-,0.02,Snow,Light Snow,110,2014-01-12 19:17:00
10:28 AM,34.0,32.0,92,29.04,5.0,East,15.0,23.0,0.02,Snow,Light Snow,100,2014-01-12 19:28:00
10:53 AM,34.0,32.0,92,29.05,5.0,ESE,11.5,-,0.03,Snow,Light Snow,110,2014-01-12 19:53:00
11:03 AM,34.0,32.0,92,29.05,3.0,East,6.9,-,0.01,Snow,Light Snow,90,2014-01-12 20:03:00
11:15 AM,34.0,32.0,92,29.05,3.0,ENE,6.9,-,0.02,Snow,Light Snow,60,2014-01-12 20:15:00
11:24 AM,34.0,32.0,92,29.06,3.0,ENE,4.6,-,0.03,Snow,Light Snow,70,2014-01-12 20:24:00
11:53 AM,34.0,32.0,92,29.06,2.0,NE,5.8,-,0.06,Snow,Light Snow,50,2014-01-12 20:53:00
12:41 PM,32.0,30.9,96,29.09,2.0,Calm,Calm,-,0.06,Snow,Light Snow,0,2014-01-12 21:41:00
12:53 PM,32.0,32.0,100,29.09,2.0,Calm,Calm,-,0.08,Snow,Light Snow,0,2014-01-12 21:53:00
1:33 PM,32.0,30.9,96,29.12,2.0,West,6.9,-,0.04,Snow,Light Snow,270,2014-01-12 22:33:00
1:53 PM,33.1,30.9,92,29.15,2.0,North,-9999.0,-,0.07,Snow,Light Snow,0,2014-01-12 22:53:00
2:07 PM,32.0,30.9,96,29.16,1.0,Calm,Calm,-,0.02,Snow,Light Snow,0,2014-01-12 23:07:00
2:17 PM,32.0,30.9,96,29.17,1.0,WSW,6.9,-,0.04,Snow,Light Snow,250,2014-01-12 23:17:00
2:27 PM,32.0,32.0,100,29.18,2.5,SW,6.9,-,0.05,Snow,Light Snow,230,2014-01-12 23:27:00
2:53 PM,33.1,32.0,96,29.20,6.0,West,4.6,-,0.06,,Overcast,270,2014-01-12 23:53:00
3:53 PM,34.0,32.0,92,29.24,5.0,Calm,Calm,-,N/A,,Overcast,0,2014-01-13 00:53:00
4:53 PM,33.1,30.9,92,29.26,9.0,ENE,3.5,-,N/A,,Overcast,70,2014-01-13 01:53:00
5:01 PM,33.1,32.0,96,29.26,9.0,Calm,Calm,-,N/A,,Overcast,0,2014-01-13 02:01:00
5:53 PM,32.0,30.9,96,29.27,8.0,ENE,4.6,-,0.00,Snow,Light Snow,60,2014-01-13 02:53:00
6:51 PM,33.8,32.0,93,29.28,4.0,NE,8.1,-,0.00,Snow,Light Snow,50,2014-01-13 03:51:00
6:53 PM,33.8,32.0,93,29.28,5.0,NE,8.1,-,0.00,Snow,Light Snow,50,2014-01-13 03:53:00
7:11 PM,34.0,32.0,92,29.29,4.0,East,6.9,-,0.01,Snow,Light Snow,80,2014-01-13 04:11:00
7:53 PM,34.0,32.0,92,29.30,7.0,East,6.9,-,0.03,Rain,Light Rain,100,2014-01-13 04:53:00
8:28 PM,35.1,32.0,89,29.32,10.0,East,11.5,-,0.02,,Overcast,80,2014-01-13 05:28:00
8:53 PM,35.1,32.0,89,29.34,10.0,ESE,10.4,-,0.02,,Overcast,120,2014-01-13 05:53:00
9:53 PM,34.0,32.0,92,29.37,9.0,ENE,6.9,-,0.05,,Overcast,60,2014-01-13 06:53:00
10:33 PM,34.0,32.0,92,29.41,7.0,ENE,4.6,-,0.05,Rain-Snow,Light Rain,60,2014-01-13 07:33:00
10:53 PM,33.1,32.0,96,29.42,10.0,East,4.6,-,0.06,Rain,Light Rain,100,2014-01-13 07:53:00
11:14 PM,33.1,32.0,96,29.43,10.0,ENE,5.8,-,0.00,Rain,Light Rain,60,2014-01-13 08:14:00
11:53 PM,35.1,32.0,89,29.46,10.0,ENE,6.9,-,0.00,,Overcast,60,2014-01-13 08:53:00